Hourly Weather Barisal

Today, 11 July, Saturday

Time Temperature Precipitation Wind Pressure Humidity
00:00 +30°C° 0 mm 3 mps 751 mmHg 87%
01:00 +30°C° 0.1 mm 4 mps 750 mmHg 87%
02:00 +30°C° 0.1 mm 4 mps 750 mmHg 87%
03:00 +30°C° 0.1 mm 4 mps 749 mmHg 87%
04:00 +30°C° 0.2 mm 5 mps 749 mmHg 87%
05:00 +30°C° 0.2 mm 5 mps 749 mmHg 87%
06:00 +30°C° 0 mm 4 mps 750 mmHg 86%
07:00 +32°C° 0.3 mm 5 mps 750 mmHg 82%
08:00 +32°C° 0.3 mm 6 mps 750 mmHg 79%
09:00 +33°C° 0.3 mm 8 mps 750 mmHg 76%
10:00 +33°C° 1.8 mm 8 mps 750 mmHg 75%
11:00 +34°C° 1.8 mm 8 mps 750 mmHg 75%
12:00 +34°C° 0 mm 10 mps 751 mmHg 74%
13:00 +33°C° 1.2 mm 9 mps 750 mmHg 76%
14:00 +33°C° 1.2 mm 8 mps 750 mmHg 77%
15:00 +32°C° 1.2 mm 7 mps 749 mmHg 79%
16:00 +32°C° 0.2 mm 6 mps 749 mmHg 80%
17:00 +32°C° 0.2 mm 6 mps 749 mmHg 80%
18:00 +32°C° 0.2 mm 5 mps 749 mmHg 81%
19:00 +32°C° 0.1 mm 4 mps 749 mmHg 83%
20:00 +30°C° 0.1 mm 4 mps 750 mmHg 85%
21:00 +30°C° 0.1 mm 4 mps 750 mmHg 87%
22:00 +30°C° 1.7 mm 4 mps 750 mmHg 86%
23:00 +30°C° 1.7 mm 5 mps 750 mmHg 85%

Tomorrow, 12 July, Sunday

Time Temperature Precipitation Wind Pressure Humidity
00:00 +30°C° 1.7 mm 5 mps 750 mmHg 84%
01:00 +30°C° 0.6 mm 5 mps 750 mmHg 84%
02:00 +30°C° 0.6 mm 5 mps 749 mmHg 85%
03:00 +30°C° 0.6 mm 5 mps 749 mmHg 85%
04:00 +30°C° 0.6 mm 5 mps 749 mmHg 86%
05:00 +29°C° 0.6 mm 4 mps 749 mmHg 87%
06:00 +29°C° 0.6 mm 4 mps 750 mmHg 87%
07:00 +30°C° 1.6 mm 5 mps 750 mmHg 86%
08:00 +30°C° 1.6 mm 5 mps 750 mmHg 84%
09:00 +30°C° 1.6 mm 6 mps 751 mmHg 82%
10:00 +30°C° 0.9 mm 5 mps 751 mmHg 82%
11:00 +30°C° 0.9 mm 5 mps 751 mmHg 82%
12:00 +30°C° 0.9 mm 5 mps 751 mmHg 82%
13:00 +30°C° 0.5 mm 5 mps 750 mmHg 83%
14:00 +30°C° 0.5 mm 5 mps 750 mmHg 85%
15:00 +29°C° 0.5 mm 5 mps 750 mmHg 86%
16:00 +29°C° 0 mm 5 mps 750 mmHg 87%
17:00 +29°C° 0 mm 4 mps 750 mmHg 87%
18:00 +29°C° 0 mm 4 mps 750 mmHg 87%
19:00 +29°C° 0 mm 3 mps 750 mmHg 88%
20:00 +29°C° 0 mm 3 mps 750 mmHg 88%
21:00 +29°C° 0 mm 3 mps 751 mmHg 89%
22:00 +29°C° 0 mm 3 mps 751 mmHg 88%
23:00 +29°C° 0 mm 3 mps 751 mmHg 88%

Day after tomorrow, 13 July, Monday

Time Temperature Precipitation Wind Pressure Humidity
00:00 +29°C° 0 mm 3 mps 751 mmHg 88%
01:00 +29°C° 0.3 mm 3 mps 750 mmHg 88%
02:00 +29°C° 0.3 mm 3 mps 750 mmHg 89%
03:00 +29°C° 0.3 mm 3 mps 750 mmHg 89%
04:00 +29°C° 1.6 mm 3 mps 750 mmHg 88%
05:00 +29°C° 1.6 mm 3 mps 750 mmHg 87%
06:00 +29°C° 1.6 mm 3 mps 749 mmHg 85%
07:00 +30°C° 0.9 mm 4 mps 750 mmHg 82%
08:00 +32°C° 0.9 mm 4 mps 750 mmHg 79%
09:00 +33°C° 0.9 mm 4 mps 751 mmHg 76%
10:00 +33°C° 1.7 mm 4 mps 751 mmHg 77%
11:00 +32°C° 1.7 mm 4 mps 751 mmHg 77%
12:00 +32°C° 1.7 mm 4 mps 750 mmHg 78%
13:00 +32°C° 1.1 mm 4 mps 750 mmHg 80%
14:00 +32°C° 1.1 mm 5 mps 750 mmHg 81%
15:00 +30°C° 1.1 mm 5 mps 749 mmHg 83%
16:00 +30°C° 0.6 mm 5 mps 750 mmHg 83%
17:00 +30°C° 0.6 mm 6 mps 750 mmHg 84%
18:00 +29°C° 0.6 mm 6 mps 750 mmHg 84%
19:00 +29°C° 0.2 mm 6 mps 750 mmHg 86%
20:00 +29°C° 0.2 mm 6 mps 751 mmHg 87%
21:00 +28°C° 0.2 mm 6 mps 751 mmHg 88%
22:00 +28°C° 1 mm 6 mps 751 mmHg 88%
23:00 +28°C° 1 mm 6 mps 752 mmHg 88%

14 July, Tuesday

Time Temperature Precipitation Wind Pressure Humidity
00:00 +28°C° 1 mm 6 mps 752 mmHg 88%
01:00 +28°C° 1.7 mm 6 mps 751 mmHg 89%
02:00 +28°C° 1.7 mm 6 mps 751 mmHg 90%
03:00 +28°C° 1.7 mm 6 mps 751 mmHg 90%
04:00 +28°C° 1.3 mm 5 mps 751 mmHg 90%
05:00 +28°C° 1.3 mm 5 mps 751 mmHg 90%
06:00 +28°C° 1.3 mm 5 mps 751 mmHg 89%
07:00 +29°C° 1 mm 6 mps 752 mmHg 87%
08:00 +29°C° 1 mm 6 mps 752 mmHg 85%
09:00 +30°C° 1 mm 7 mps 753 mmHg 82%
10:00 +30°C° 1.1 mm 7 mps 753 mmHg 80%
11:00 +32°C° 1.1 mm 7 mps 753 mmHg 78%
12:00 +33°C° 1.1 mm 7 mps 753 mmHg 75%
13:00 +33°C° 0.8 mm 7 mps 752 mmHg 74%
14:00 +33°C° 0.8 mm 7 mps 752 mmHg 73%
15:00 +33°C° 0.8 mm 7 mps 751 mmHg 72%
16:00 +33°C° 0.2 mm 6 mps 751 mmHg 74%
17:00 +32°C° 0.2 mm 6 mps 751 mmHg 75%
18:00 +32°C° 0.2 mm 5 mps 751 mmHg 77%
19:00 +30°C° 0 mm 4 mps 751 mmHg 80%
20:00 +30°C° 0 mm 4 mps 752 mmHg 83%
21:00 +29°C° 0 mm 3 mps 752 mmHg 86%
22:00 +29°C° 0.4 mm 3 mps 752 mmHg 86%
23:00 +29°C° 0.4 mm 3 mps 752 mmHg 86%

15 July, Wednesday

Time Temperature Precipitation Wind Pressure Humidity
00:00 +29°C° 0.4 mm 2 mps 753 mmHg 87%
01:00 +29°C° 0.3 mm 2 mps 752 mmHg 87%
02:00 +29°C° 0.3 mm 2 mps 752 mmHg 88%
03:00 +28°C° 0.3 mm 2 mps 752 mmHg 89%
04:00 +29°C° 0.4 mm 2 mps 752 mmHg 89%
05:00 +29°C° 0.4 mm 2 mps 752 mmHg 89%
06:00 +29°C° 0.4 mm 2 mps 752 mmHg 88%
07:00 +30°C° 0.8 mm 3 mps 752 mmHg 83%
08:00 +31°C° 0.8 mm 3 mps 752 mmHg 77%
09:00 +33°C° 0.8 mm 4 mps 752 mmHg 71%
10:00 +34°C° 0.5 mm 4 mps 752 mmHg 69%
11:00 +34°C° 0.5 mm 5 mps 752 mmHg 67%
12:00 +35°C° 0.5 mm 5 mps 752 mmHg 65%
13:00 +35°C° 0.8 mm 5 mps 751 mmHg 65%
14:00 +35°C° 0.8 mm 5 mps 751 mmHg 65%
15:00 +35°C° 0.8 mm 5 mps 750 mmHg 64%
16:00 +34°C° 0 mm 5 mps 750 mmHg 67%
17:00 +33°C° 0 mm 5 mps 750 mmHg 70%
18:00 +33°C° 0 mm 4 mps 749 mmHg 72%
19:00 +32°C° 0 mm 4 mps 750 mmHg 76%
20:00 +31°C° 0 mm 3 mps 751 mmHg 79%
21:00 +30°C° 0 mm 3 mps 751 mmHg 83%
22:00 +30°C° 0 mm 3 mps 751 mmHg 84%
23:00 +30°C° 0 mm 3 mps 751 mmHg 85%

16 July, Thursday

Time Temperature Precipitation Wind Pressure Humidity
00:00 +30°C° 0 mm 2 mps 751 mmHg 86%
01:00 +29°C° 0 mm 2 mps 751 mmHg 87%
02:00 +29°C° 0 mm 2 mps 751 mmHg 88%
03:00 +29°C° 0 mm 2 mps 751 mmHg 89%
04:00 +29°C° 0 mm 2 mps 751 mmHg 89%
05:00 +29°C° 0 mm 2 mps 751 mmHg 89%
06:00 +29°C° 0 mm 1 mps 751 mmHg 89%
07:00 +30°C° 0.3 mm 2 mps 751 mmHg 83%
08:00 +31°C° 0.3 mm 2 mps 751 mmHg 76%
09:00 +34°C° 0.3 mm 2 mps 751 mmHg 70%
10:00 +34°C° 0.5 mm 3 mps 751 mmHg 67%
11:00 +35°C° 0.5 mm 3 mps 751 mmHg 65%
12:00 +35°C° 0.5 mm 3 mps 750 mmHg 62%
13:00 +35°C° 0.9 mm 4 mps 750 mmHg 63%
14:00 +36°C° 0.9 mm 4 mps 749 mmHg 63%
15:00 +36°C° 0.9 mm 4 mps 749 mmHg 63%
16:00 +35°C° 0.3 mm 4 mps 749 mmHg 66%
17:00 +34°C° 0.3 mm 4 mps 749 mmHg 69%
18:00 +34°C° 0.3 mm 3 mps 748 mmHg 71%
19:00 +33°C° 0 mm 3 mps 749 mmHg 75%
20:00 +31°C° 0 mm 3 mps 750 mmHg 79%
21:00 +30°C° 0 mm 3 mps 750 mmHg 83%
22:00 +30°C° 0 mm 3 mps 750 mmHg 84%
23:00 +30°C° 0 mm 3 mps 751 mmHg 85%
Show more